Location: Colebrook
(42.0017°N, 73.0973°W)
Time: 00:29:06
(UTC-04:00)

Amateur Radio Satellites - All Passes

Search period start: 01 August 2014 23:59
Search period end: 02 August 2014 23:59
Location: Colebrook, 42.0017°N, 73.0973°W

Satellite Date Start Highest point End Downlink Frequencies (MHz)
Time Altitude Azimuth
Sapphire 02 Aug 00:26:30 00:31:54 76° 301° (WNW) 00:37:21 437.095 MHz 1200 baud AX-25 AFSK
ISS 02 Aug 00:30:27 00:32:57 19° 347° (NNW) 00:35:27 145.800 FM
RS-15 02 Aug 00:39:32 00:46:20 19° 261° (W) 00:53:18 29.354 - 29.394 USB, Beacon 29.352 USB
Oscar 10/S400 02 Aug 00:50:53 01:25:06 63° 184° (S) 10:22:08 145.825 - 145.975 CW/USB, Beacon 145.810 USB
AO-40 02 Aug 00:52:30 03:42:21 23° 127° (SE) 05:00:18 Beacon 2401.320
PCSat 02 Aug 00:59:59 01:05:03 40° 308° (NW) 01:10:09 145.825 MHz
Oscar 16 02 Aug 01:14:31 01:17:23 15° 90° (E) 01:20:15 437.025 USB, Beacon 2401.1428
ITAMSAT 1 02 Aug 01:45:12 01:47:05 12° 89° (E) 01:48:58 435.822 SSB
Uribyol 2 02 Aug 02:02:03 02:05:42 19° 92° (E) 02:09:20 436.500 FM
AO-27 02 Aug 02:04:05 02:07:46 19° 92° (E) 02:11:25 436.795 MHz FM
AO-Echo 02 Aug 02:06:27 02:10:08 20° 92° (E) 02:13:43 ?
ISS 02 Aug 02:08:19 02:10:36 17° 8° (N) 02:12:52 145.800 FM
Sapphire 02 Aug 02:13:12 02:16:16 15° 321° (NW) 02:19:20 437.095 MHz 1200 baud AX-25 AFSK
Oscar 19 02 Aug 02:22:51 02:28:01 64° 101° (ESE) 02:33:09 437.125 CW, 437.150 USB
OPAL 02 Aug 02:42:48 02:45:56 17° 59° (ENE) 02:49:05 ?
Gurwin Techsat 1B 02 Aug 02:50:30 02:54:38 23° 93° (E) 02:58:44 435.225 FM
JAS-1B 02 Aug 02:51:58 03:00:32 43° 94° (E) 03:07:48 435.800 - 435.900 CW/SSB
Oscar 16 02 Aug 02:52:04 02:57:13 68° 287° (WNW) 03:02:20 437.025 USB, Beacon 2401.1428
ITAMSAT 1 02 Aug 03:22:00 03:27:12 81° 285° (WNW) 03:32:21 435.822 SSB
Uribyol 2 02 Aug 03:40:28 03:45:29 52° 289° (WNW) 03:50:27 436.500 FM
AO-27 02 Aug 03:42:33 03:47:35 52° 289° (WNW) 03:52:34 436.795 MHz FM
AO-Echo 02 Aug 03:44:22 03:49:09 45° 290° (WNW) 03:53:45 ?
ISS 02 Aug 03:44:47 03:47:59 40° 27° (NNE) 03:51:11 145.800 FM
TMSAT-1 02 Aug 04:02:14 04:07:33 75° 103° (ESE) 04:12:49 436.925 FM
Oscar 19 02 Aug 04:03:30 04:06:50 18° 299° (WNW) 04:10:11 437.125 CW, 437.150 USB
Uosat F 02 Aug 04:07:26 04:10:47 18° 92° (E) 04:14:07 435.120 FM
PANSAT 02 Aug 04:13:41 04:14:40 11° 177° (S) 04:15:38 not established
OPAL 02 Aug 04:19:26 04:24:19 63° 256° (WSW) 04:29:15 ?
MaSat-1 02 Aug 04:27:49 04:31:20 18° 46° (NE) 04:34:45 437.345 MHz
Gurwin Techsat 1B 02 Aug 04:29:44 04:34:48 47° 290° (WNW) 04:39:51 435.225 FM
AO-7 02 Aug 04:30:28 04:37:54 35° 97° (E) 04:45:16 29.400 - 29.500 MHz
KITSAT 1 02 Aug 04:37:06 04:43:59 32° 107° (ESE) 04:50:52 435.175 FM
JAS-1B 02 Aug 04:42:24 04:51:03 46° 297° (WNW) 04:58:29 435.800 - 435.900 CW/SSB
ITAMSAT 1 02 Aug 05:04:21 05:05:50 11° 303° (WNW) 05:07:20 435.822 SSB
STRAND 1 02 Aug 05:14:14 05:16:24 13° 58° (ENE) 05:18:34 ?
ISS 02 Aug 05:21:41 05:24:36 28° 224° (SW) 05:27:31 145.800 FM
Saudisat 1A 02 Aug 05:39:23 05:42:14 17° 110° (ESE) 05:45:04 436.775 MHz
TMSAT-1 02 Aug 05:43:49 05:46:49 16° 300° (WNW) 05:49:50 436.925 FM
Uosat F 02 Aug 05:45:00 05:49:54 54° 289° (WNW) 05:54:45 435.120 FM
MaSat-1 02 Aug 06:04:02 06:09:21 81° 246° (WSW) 06:14:15 437.345 MHz
AO-7 02 Aug 06:22:55 06:30:57 54° 296° (WNW) 06:38:55 29.400 - 29.500 MHz
KITSAT 1 02 Aug 06:30:54 06:38:54 61° 306° (NW) 06:46:56 435.175 FM
JAS-1B 02 Aug 06:36:20 06:38:59 12° 319° (NW) 06:41:33 435.800 - 435.900 CW/SSB
Hamsat 02 Aug 06:48:18 06:52:37 67° 101° (E) 06:56:57 145.90 MHz
STRAND 1 02 Aug 06:49:41 06:54:50 89° 256° (WSW) 07:00:00 ?
JAS-2 02 Aug 06:51:33 06:57:08 50° 99° (E) 07:02:14 435.800 - 435.900 CW/SSB, 435.910 FM
Saudisat 1A 02 Aug 07:17:04 07:21:24 53° 307° (NW) 07:25:45 436.775 MHz
SO-67 02 Aug 07:20:25 07:23:03 20° 94° (E) 07:25:41 435.3500 MHz FM
Sapphire 02 Aug 07:31:51 07:35:26 18° 41° (NE) 07:38:59 437.095 MHz 1200 baud AX-25 AFSK
PCSat 02 Aug 08:04:08 08:08:53 30° 49° (NE) 08:13:36 145.825 MHz
AO-7 02 Aug 08:18:32 08:21:52 13° 317° (NW) 08:25:13 29.400 - 29.500 MHz
Hamsat 02 Aug 08:26:16 08:28:02 12° 297° (WNW) 08:29:49 145.90 MHz
KITSAT 1 02 Aug 08:30:35 08:36:09 20° 331° (NNW) 08:41:43 435.175 FM
STRAND 1 02 Aug 08:34:22 08:34:43 10° 272° (W) 08:35:03 ?
JAS-2 02 Aug 08:37:28 08:41:48 22° 299° (WNW) 08:45:52 435.800 - 435.900 CW/SSB, 435.910 FM
SO-67 02 Aug 08:53:17 08:56:04 23° 290° (WNW) 08:58:51 435.3500 MHz FM
Saudisat 1A 02 Aug 09:01:40 09:01:59 10° 328° (NNW) 09:02:19 436.775 MHz
Sapphire 02 Aug 09:14:09 09:19:36 89° 243° (WSW) 09:25:02 437.095 MHz 1200 baud AX-25 AFSK
UKube-1 02 Aug 09:24:38 09:27:53 20° 94° (E) 09:31:07 145.840 MHz, 145.915 MHz
HO-68 02 Aug 09:47:03 09:54:05 57° 102° (ESE) 10:01:03 435.675 MHz FM
PCSat 02 Aug 09:47:19 09:52:27 44° 248° (WSW) 09:57:33 145.825 MHz
Oscar 11 02 Aug 10:04:13 10:08:03 30° 96° (E) 10:11:52 145.825 FM, Beacon 2401.500 USB
KITSAT 1 02 Aug 10:32:55 10:35:33 12° 2° (N) 10:38:12 435.175 FM
FUNcube-1 02 Aug 10:38:48 10:42:20 26° 96° (E) 10:45:54 145.950 - 145.970 MHz USB
RS-15 02 Aug 10:44:18 10:48:44 13° 96° (E) 10:53:07 29.354 - 29.394 USB, Beacon 29.352 USB
UKube-1 02 Aug 11:00:12 11:04:12 36° 290° (WNW) 11:08:10 145.840 MHz, 145.915 MHz
Sapphire 02 Aug 11:00:23 11:02:11 12° 258° (WSW) 11:03:59 437.095 MHz 1200 baud AX-25 AFSK
SO-50 02 Aug 11:19:40 11:23:57 49° 118° (ESE) 11:28:21 436.795 FM
HO-68 02 Aug 11:35:24 11:41:22 30° 300° (WNW) 11:47:20 435.675 MHz FM
Oscar 11 02 Aug 11:40:34 11:44:07 25° 292° (WNW) 11:47:40 145.825 FM, Beacon 2401.500 USB
JAS-1B 02 Aug 11:52:45 11:55:11 11° 40° (NE) 11:57:39 435.800 - 435.900 CW/SSB
Oscar 19 02 Aug 12:04:31 12:06:42 13° 58° (ENE) 12:08:53 437.125 CW, 437.150 USB
FUNcube-1 02 Aug 12:15:09 12:18:41 27° 291° (WNW) 12:22:15 145.950 - 145.970 MHz USB
KITSAT 1 02 Aug 12:28:46 12:34:47 22° 32° (NNE) 12:40:45 435.175 FM
Oscar 16 02 Aug 12:31:36 12:35:36 24° 64° (ENE) 12:39:36 437.025 USB, Beacon 2401.1428
RS-15 02 Aug 12:47:52 12:58:50 67° 116° (ESE) 13:09:36 29.354 - 29.394 USB, Beacon 29.352 USB
UOSAT-12 02 Aug 12:54:10 12:58:17 33° 115° (ESE) 13:02:29 437.025 FM, 437.400 FM
SO-50 02 Aug 13:01:13 13:04:47 23° 317° (NW) 13:08:25 436.795 FM
ITAMSAT 1 02 Aug 13:02:45 13:06:35 21° 63° (ENE) 13:10:25 435.822 SSB
AO-Echo 02 Aug 13:19:06 13:23:41 31° 67° (ENE) 13:28:16 ?
Uribyol 2 02 Aug 13:20:06 13:24:37 31° 67° (ENE) 13:29:08 436.500 FM
AO-27 02 Aug 13:22:22 13:26:56 32° 67° (ENE) 13:31:30 436.795 MHz FM
JAS-1B 02 Aug 13:34:26 13:42:58 42° 62° (ENE) 13:51:59 435.800 - 435.900 CW/SSB
Oscar 19 02 Aug 13:40:11 13:45:17 87° 256° (WSW) 13:50:27 437.125 CW, 437.150 USB
AO-7 02 Aug 13:44:00 13:46:43 12° 41° (NE) 13:49:27 29.400 - 29.500 MHz
TMSAT-1 02 Aug 13:46:10 13:49:25 17° 61° (ENE) 13:52:41 436.925 FM
Saudisat 1A 02 Aug 14:04:39 14:07:51 19° 42° (NE) 14:11:02 436.775 MHz
Oscar 16 02 Aug 14:09:48 14:14:40 44° 261° (W) 14:19:35 437.025 USB, Beacon 2401.1428
Gurwin Techsat 1B 02 Aug 14:11:48 14:16:38 37° 68° (ENE) 14:21:29 435.225 FM
KITSAT 1 02 Aug 14:23:36 14:31:43 72° 56° (ENE) 14:39:45 435.175 FM
UOSAT-12 02 Aug 14:34:17 14:38:25 32° 313° (NW) 14:42:39 437.025 FM, 437.400 FM
ITAMSAT 1 02 Aug 14:40:37 14:45:42 52° 260° (W) 14:50:47 435.822 SSB
AO-Echo 02 Aug 14:57:28 15:02:19 36° 263° (W) 15:07:12 ?
Uribyol 2 02 Aug 14:59:22 15:04:01 33° 263° (W) 15:08:41 436.500 FM
RS-15 02 Aug 15:01:38 15:11:52 41° 321° (NW) 15:22:04 29.354 - 29.394 USB, Beacon 29.352 USB
AO-27 02 Aug 15:01:42 15:06:22 33° 263° (W) 15:11:04 436.795 MHz FM
Uosat F 02 Aug 15:20:52 15:25:03 27° 65° (ENE) 15:29:14 435.120 FM
TMSAT-1 02 Aug 15:23:29 15:28:45 70° 258° (WSW) 15:34:04 436.925 FM
JAS-1B 02 Aug 15:24:06 15:33:02 56° 262° (W) 15:42:46 435.800 - 435.900 CW/SSB
AO-7 02 Aug 15:29:36 15:37:32 50° 63° (ENE) 15:45:29 29.400 - 29.500 MHz
Saudisat 1A 02 Aug 15:43:28 15:47:49 60° 240° (WSW) 15:52:07 436.775 MHz
Gurwin Techsat 1B 02 Aug 15:52:06 15:56:39 29° 265° (W) 16:01:13 435.225 FM
KITSAT 1 02 Aug 16:20:05 16:26:22 26° 255° (WSW) 16:32:38 435.175 FM
OPAL 02 Aug 16:28:56 16:33:30 32° 99° (E) 16:38:05 ?
Uosat F 02 Aug 16:59:01 17:03:40 37° 262° (W) 17:08:20 435.120 FM
JAS-2 02 Aug 17:02:54 17:09:14 30° 64° (ENE) 17:15:07 435.800 - 435.900 CW/SSB, 435.910 FM
RS-15 02 Aug 17:20:25 17:28:19 22° 354° (N) 17:36:17 29.354 - 29.394 USB, Beacon 29.352 USB
AO-7 02 Aug 17:22:48 17:30:26 39° 262° (W) 17:38:08 29.400 - 29.500 MHz
JAS-1B 02 Aug 17:23:55 17:25:42 11° 282° (WNW) 17:27:30 435.800 - 435.900 CW/SSB
Hamsat 02 Aug 17:42:03 17:46:05 48° 73° (ENE) 17:50:09 145.90 MHz
OPAL 02 Aug 18:07:49 18:12:19 32° 295° (WNW) 18:16:51 ?
SO-50 02 Aug 18:12:30 18:13:41 11° 32° (NNE) 18:14:51 436.795 FM
JAS-2 02 Aug 18:46:16 18:53:53 60° 259° (W) 19:00:54 435.800 - 435.900 CW/SSB, 435.910 FM
STRAND 1 02 Aug 19:00:23 19:04:51 30° 96° (E) 19:09:17 ?
Hamsat 02 Aug 19:20:05 19:22:20 14° 269° (W) 19:24:36 145.90 MHz
SO-67 02 Aug 19:25:58 19:29:24 65° 259° (W) 19:32:53 435.3500 MHz FM
RS-15 02 Aug 19:36:08 19:45:34 31° 30° (NNE) 19:55:09 29.354 - 29.394 USB, Beacon 29.352 USB
SO-50 02 Aug 19:50:41 19:55:20 52° 52° (NE) 20:00:02 436.795 FM
MaSat-1 02 Aug 19:55:10 19:59:05 41° 108° (ESE) 20:03:35 437.345 MHz
HO-68 02 Aug 20:15:55 20:22:37 45° 65° (ENE) 20:29:19 435.675 MHz FM
UKube-1 02 Aug 20:20:54 20:24:05 20° 65° (ENE) 20:27:17 145.840 MHz, 145.915 MHz
STRAND 1 02 Aug 20:39:29 20:44:02 33° 293° (WNW) 20:48:33 ?
Oscar 11 02 Aug 20:59:58 21:03:30 25° 68° (ENE) 21:07:03 145.825 FM, Beacon 2401.500 USB
UOSAT-12 02 Aug 21:23:05 21:27:27 35° 48° (NE) 21:31:45 437.025 FM, 437.400 FM
SO-50 02 Aug 21:32:04 21:35:33 20° 249° (WSW) 21:39:04 436.795 FM
MaSat-1 02 Aug 21:33:00 21:36:36 24° 310° (NW) 21:40:35 437.345 MHz
FUNcube-1 02 Aug 21:36:09 21:39:29 23° 68° (ENE) 21:42:47 145.950 - 145.970 MHz USB
RS-15 02 Aug 21:48:39 21:59:45 83° 57° (ENE) 22:11:16 29.354 - 29.394 USB, Beacon 29.352 USB
UKube-1 02 Aug 21:55:56 22:00:02 39° 261° (W) 22:04:09 145.840 MHz, 145.915 MHz
ISS 02 Aug 22:03:34 22:06:52 77° 144° (SE) 22:10:13 145.800 FM
HO-68 02 Aug 22:03:53 22:10:22 37° 263° (W) 22:16:54 435.675 MHz FM
Sapphire 02 Aug 22:18:42 22:18:59 10° 101° (E) 22:19:16 437.095 MHz 1200 baud AX-25 AFSK
Oscar 11 02 Aug 22:35:51 22:39:35 29° 264° (W) 22:43:21 145.825 FM, Beacon 2401.500 USB
PCSat 02 Aug 22:47:17 22:51:23 22° 107° (ESE) 22:55:31 145.825 MHz
UOSAT-12 02 Aug 23:03:24 23:07:31 30° 246° (WSW) 23:11:35 437.025 FM, 437.400 FM
FUNcube-1 02 Aug 23:11:58 23:15:45 31° 263° (W) 23:19:30 145.950 - 145.970 MHz USB
ISS 02 Aug 23:41:08 23:43:53 23° 342° (NNW) 23:46:39 145.800 FM
